This is the latest recevied weather packets stored in our database for station/object KO6LQJ. If no packets are shown the sender has not sent any weather packets the latest 10 day(s).
| Time | Temp. | Humidity | Pressure | Rain* | Wind** | Luminosity | Snow |
|---|---|---|---|---|---|---|---|
| 1778048726 | 12.78° C | 70% | 1019 hPa | 0 mm | - | 0 W/m² | - |
| 1778048423 | 12.78° C | 70% | 1019 hPa | 0 mm | - | 0 W/m² | - |
| 1778048118 | 12.78° C | 69% | 1018.8 hPa | 0 mm | - | 0 W/m² | - |
| 1778047816 | 13.33° C | 69% | 1018.9 hPa | 0 mm | - | 0 W/m² | - |
| 1778047515 | 13.33° C | 68% | 1018.9 hPa | 0 mm | - | 0 W/m² | - |
| 1778047211 | 13.33° C | 68% | 1019 hPa | 0 mm | - | 0 W/m² | - |
| 1778046908 | 13.89° C | 68% | 1018.9 hPa | 0 mm | - | 0 W/m² | - |
| 1778046605 | 13.89° C | 67% | 1018.8 hPa | 0 mm | - | 0 W/m² | - |
| 1778046302 | 13.89° C | 67% | 1018.9 hPa | 0 mm | - | 0 W/m² | - |
| 1778045997 | 13.89° C | 67% | 1018.9 hPa | 0 mm | - | 0 W/m² | - |
| 1778045696 | 14.44° C | 66% | 1018.7 hPa | 0 mm | - | 0 W/m² | - |
| 1778045394 | 14.44° C | 66% | 1018.8 hPa | 0 mm | - | 0 W/m² | - |
| 1778045093 | 14.44° C | 66% | 1018.7 hPa | 0 mm | - | 0 W/m² | - |
| 1778044790 | 13.89° C | 66% | 1018.8 hPa | 0 mm | - | 0 W/m² | - |
| 1778044486 | 13.89° C | 66% | 1018.5 hPa | 0 mm | - | 0 W/m² | - |
| 1778044183 | 13.89° C | 66% | 1018.6 hPa | 0 mm | - | 0 W/m² | - |
| 1778043881 | 13.89° C | 65% | 1018.6 hPa | 0 mm | - | 0 W/m² | - |
| 1778043578 | 14.44° C | 65% | 1018.5 hPa | 0 mm | - | 0 W/m² | - |
| 1778043275 | 14.44° C | 64% | 1018.4 hPa | 0 mm | - | 0 W/m² | - |
| 1778042971 | 14.44° C | 64% | 1018.4 hPa | 0 mm | - | 0 W/m² | - |
| 1778042670 | 15° C | 63% | 1018.1 hPa | 0 mm | - | 0 W/m² | - |
| 1778042366 | 15° C | 63% | 1018 hPa | 0 mm | - | 0 W/m² | - |
| 1778042063 | 14.44° C | 63% | 1017.8 hPa | 0 mm | - | 0 W/m² | - |
| 1778041761 | 14.44° C | 63% | 1018.1 hPa | 0 mm | - | 0 W/m² | - |
| 1778041461 | 14.44° C | 64% | 1017.8 hPa | 0 mm | - | 0 W/m² | - |
* Rain latest hour (hover to see other rain measurements)
** Current wind speed in m/s (hover to see current wind gust speed)